Temp
3 2 2 1 1 1 1 3 3 3 3 3 3 3 3 3 4 3 3 3 2 3 2 1 0 0 -2 -3 -5 -4 -5 -7 -9 -8 -9 -7 -8 -7 -8 -10 -7 -4 -6 -4 -4 -2 0 -5 -5 0 -2 -5 -4 -4
4 3 3 3 2 2 1 1 3 3 3 3 3 3 3 3 3 3 2 2 2 2 2 1 0 0 0 0 -0 -3 -4 -4 -4 -9 -11 -10 -7 -10 -11 -4 -13 -6 -5 -4 -3 -1 -4 -3 -3 -1 -2 -2 -3 -3
4 4 3 3 3 3 3 2 1 1 2 1 2 2 2 2 3 2 2 2 2 1 1 0 0 0 -1 -1 -1 -1 -4 -3 -4 -5 -9 -11 -8 -8 -7 -8 -10 -10 -13 -9 -6 -7 -6 -1 -1 -2 -2 -1 -1 -2
3 3 3 3 3 2 2 2 2 1 1 1 0 1 1 1 2 2 2 1 1 1 -2 0 0 -0 -1 -2 -3 -3 -3 -4 -5 -6 -7 -13 -10 -8 -9 -10 -9 -9 -11 -10 -9 -7 -6 -3 -1 -2 -2 -2 -2 -3
3 3 3 3 2 2 2 2 1 1 1 0 -0 -1 0 0 0 1 1 1 0 1 -1 0 -1 -2 -3 -4 -4 -5 -5 -5 -6 -7 -10 -9 -10 -10 -14 -12 -10 -11 -8 -5 -2 -2 -3 -1 -1 -2 -3 -2 -2 -3
2 2 2 2 2 3 3 1 1 1 1 1 -0 -1 -2 -2 -1 -1 -0 1 1 -1 -1 -5 -4 -5 -6 -6 -6 -6 -6 -6 -6 -5 -8 -8 -8 -8 -10 -9 -5 -4 -3 -2 -2 -2 -2 -1 -1 -0 -2 -4 -3 -3
1 1 1 2 2 2 2 2 2 1 1 0 0 -1 -1 -2 -2 -2 -0 -1 -1 -2 -2 -4 -5 -7 -8 -8 -8 -8 -8 -7 -6 -6 -9 -8 -9 -8 -14 -8 -3 -2 -3 -4 -4 -4 -4 -2 -1 -1 -2 -5 -5 -5
-2 -1 0 1 0 1 2 2 2 2 2 1 1 -1 -1 -2 -3 -3 -2 -2 -2 -3 -2 -6 -6 -7 -8 -9 -8 -8 -8 -8 -7 -7 -8 -9 -11 -12 -11 -7 -3 -3 -3 -3 -3 -4 -4 -3 -3 -3 -3 -5 -6 -5
-3 -3 -3 -2 -1 -0 -0 1 2 2 2 1 1 -1 -2 -2 -3 -3 -2 -2 -3 -3 -4 -8 -6 -5 -9 -9 -9 -9 -9 -11 -8 -9 -9 -9 -11 -10 -6 -5 -4 -3 -3 -3 -3 -4 -4 -5 -5 -4 -4 -5 -5 -5
-3 -3 -3 -3 -3 -2 -0 -0 1 2 2 2 -0 -2 -2 -3 -3 -3 -5 -4 -5 -5 -6 -8 -5 -10 -8 -9 -10 -10 -10 -11 -12 -10 -8 -9 -8 -6 -4 -3 -4 -4 -4 -4 -5 -6 -4 -4 -4 -4 -3 -4 -4 -4
-3 -3 -3 -3 -3 -3 -3 -2 -0 -0 2 -1 -2 -3 -5 -4 -4 -4 -5 -7 -8 -11 -8 -8 -7 -9 -8 -10 -9 -9 -11 -12 -13 -10 -9 -9 -9 -8 -6 -5 -5 -5 -4 -2 -3 -5 -4 -4 -4 -4 -4 -4 -4 -5
-3 -3 -3 -3 -3 -3 -3 -3 -3 -1 -0 -1 -2 -5 -6 -5 -5 -6 -8 -9 -10 -8 -9 -11 -9 -7 -9 -7 -9 -11 -10 -11 -12 -10 -11 -10 -8 -7 -7 -7 -6 -5 -4 -4 -4 -4 -4 -5 -4 -5 -5 -4 -5 -5
-3 -3 -3 -3 -3 -3 -3 -4 -3 -2 -2 -3 -4 -6 -5 -6 -5 -6 -7 -10 -11 -9 -10 -11 -12 -7 -9 -9 -10 -12 -13 -11 -10 -11 -10 -9 -9 -9 -8 -7 -7 -6 -6 -6 -5 -5 -4 -5 -5 -5 -5 -5 -5 -6
-2 -3 -3 -3 -3 -3 -3 -3 -3 -3 -3 -3 -5 -6 -4 -7 -7 -7 -7 -7 -6 -8 -10 -8 -11 -10 -10 -10 -11 -11 -11 -11 -12 -13 -10 -11 -9 -9 -9 -8 -7 -7 -6 -6 -6 -6 -6 -6 -5 -5 -5 -5 -6 -6
-2 -2 -3 -3 -3 -3 -3 -3 -3 -3 -3 -3 -4 -4 -5 -5 -7 -6 -5 -7 -8 -9 -8 -9 -10 -9 -10 -9 -10 -11 -12 -13 -12 -9 -11 -11 -11 -10 -9 -8 -8 -7 -7 -6 -6 -6 -6 -5 -5 -5 -6 -6 -6 -6
-1 -2 -2 -3 -3 -3 -3 -3 -3 -3 -2 -3 -3 -4 -6 -6 -11 -8 -7 -10 -9 -8 -6 -6 -10 -8 -9 -8 -10 -11 -10 -10 -8 -12 -11 -11 -11 -10 -9 -9 -8 -8 -7 -7 -7 -7 -7 -7 -7 -8 -8 -8 -8 -8
-1 -2 -2 -3 -3 -3 -3 -4 -3 -3 -3 -4 -4 -4 -5 -5 -7 -7 -5 -8 -8 -5 -7 -8 -7 -7 -9 -9 -10 -10 -10 -10 -11 -12 -12 -11 -11 -11 -10 -10 -10 -9 -9 -9 -9 -9 -8 -9 -8 -8 -9 -10 -10 -10
-1 -2 -2 -3 -3 -3 -3 -3 -3 -3 -4 -4 -5 -5 -3 -4 -5 -6 -6 -6 -6 -7 -6 -6 -8 -8 -9 -10 -9 -10 -12 -12 -11 -12 -12 -12 -12 -12 -11 -11 -11 -10 -10 -10 -10 -10 -10 -10 -10 -10 -11 -12 -12 -12
-2 -2 -3 -3 -3 -3 -3 -4 -3 -4 -6 -6 -6 -6 -5 -6 -7 -4 -4 -7 -6 -5 -5 -7 -6 -7 -9 -14 -13 -14 -13 -13 -13 -13 -13 -13 -13 -13 -13 -12 -12 -12 -11 -12 -12 -12 -12 -13 -13 -12 -13 -13 -13 -13
-2 -3 -3 -3 -4 -3 -4 -4 -4 -4 -7 -8 -7 -8 -8 -8 -8 -8 -8 -7 -7 -6 -7 -9 -13 -16 -16 -16 -15 -15 -14 -14 -13 -14 -14 -15 -15 -14 -14 -14 -14 -14 -13 -13 -14 -14 -14 -14 -14 -14 -14 -14 -15 -14
-3 -3 -3 -3 -4 -5 -7 -8 -8 -8 -9 -10 -10 -10 -11 -10 -10 -9 -10 -9 -11 -16 -16 -17 -18 -17 -16 -16 -15 -15 -15 -15 -15 -15 -16 -16 -15 -15 -16 -16 -16 -15 -15 -15 -15 -15 -15 -15 -15 -15 -15 -16 -16 -16
-3 -3 -4 -4 -5 -7 -9 -9 -9 -10 -10 -11 -11 -11 -12 -12 -14 -14 -14 -16 -18 -19 -18 -18 -18 -17 -17 -17 -16 -16 -16 -16 -16 -16 -17 -17 -17 -16 -16 -16 -16 -16 -17 -17 -17 -17 -16 -16 -16 -16 -16 -16 -16 -16
-3 -3 -5 -7 -7 -8 -10 -10 -10 -10 -9 -12 -12 -13 -14 -15 -15 -14 -17 -19 -19 -19 -18 -18 -18 -18 -17 -17 -17 -17 -17 -17 -17 -17 -17 -17 -18 -18 -18 -18 -18 -17 -17 -17 -17 -17 -17 -17 -17 -17 -17 -17 -17 -17
-3 -6 -9 -10 -10 -11 -10 -11 -11 -11 -12 -13 -13 -14 -15 -15 -15 -16 -17 -19 -20 -19 -19 -18 -18 -18 -18 -18 -18 -18 -18 -18 -18 -18 -18 -18 -18 -18 -18 -18 -18 -18 -18 -18 -18 -18 -18 -18 -18 -17 -17 -17 -17 -17
-7 -13 -12 -13 -12 -10 -11 -11 -12 -12 -13 -13 -14 -15 -16 -15 -15 -16 -17 -19 -19 -19 -19 -18 -18 -18 -18 -19 -19 -18 -18 -18 -18 -18 -18 -18 -18 -19 -19 -19 -19 -19 -19 -18 -18 -18 -18 -18 -18 -18 -18 -18 -18 -18
-14 -16 -15 -16 -14 -12 -13 -13 -13 -13 -14 -15 -16 -17 -16 -15 -15 -17 -18 -19 -19 -19 -19 -19 -18 -18 -18 -18 -19 -19 -18 -18 -18 -18 -19 -19 -19 -19 -19 -19 -19 -20 -20 -19 -19 -19 -19 -19 -19 -19 -18 -18 -18 -18
-16 -17 -16 -17 -17 -15 -14 -15 -15 -16 -16 -15 -16 -15 -14 -15 -16 -18 -19 -19 -19 -19 -18 -18 -18 -18 -19 -19 -19 -19 -19 -19 -19 -19 -19 -19 -20 -20 -19 -19 -20 -21 -21 -20 -21 -20 -20 -20 -19 -19 -19 -19 -19 -19
-19 -19 -18 -19 -19 -20 -17 -18 -18 -19 -19 -20 -17 -17 -16 -16 -17 -19 -19 -19 -18 -18 -18 -18 -18 -18 -18 -19 -19 -19 -19 -19 -19 -19 -19 -20 -20 -20 -21 -21 -21 -22 -22 -22 -21 -21 -21 -21 -20 -20 -20 -20 -20 -20
-19 -20 -19 -20 -20 -22 -24 -21 -21 -22 -23 -22 -18 -19 -20 -20 -20 -19 -18 -18 -18 -18 -18 -18 -19 -19 -19 -19 -19 -20 -20 -20 -20 -20 -21 -21 -21 -21 -22 -22 -23 -23 -22 -22 -22 -22 -22 -22 -21 -21 -21 -20 -20 -20
-21 -21 -21 -23 -23 -23 -24 -23 -22 -22 -22 -22 -21 -20 -19 -19 -19 -18 -18 -18 -18 -18 -18 -19 -19 -19 -19 -19 -20 -20 -21 -21 -22 -22 -23 -22 -22 -22 -22 -22 -22 -22 -22 -23 -23 -22 -22 -22 -21 -21 -21 -21 -21 -20
-20 -19 -20 -22 -23 -21 -21 -21 -20 -20 -19 -19 -19 -18 -19 -18 -19 -19 -19 -18 -18 -19 -19 -19 -20 -20 -20 -21 -22 -22 -22 -22 -22 -23 -23 -23 -23 -23 -23 -23 -23 -23 -23 -23 -23 -22 -22 -22 -22 -22 -21 -21 -21 -21
-18 -22 -22 -25 -23 -21 -20 -19 -19 -18 -18 -18 -18 -18 -18 -18 -19 -19 -19 -18 -19 -19 -20 -20 -20 -20 -21 -22 -22 -23 -23 -23 -24 -24 -24 -24 -24 -24 -24 -23 -23 -23 -23 -23 -23 -23 -22 -22 -22 -22 -22 -21 -21 -21
-19 -20 -20 -21 -21 -20 -20 -20 -20 -20 -19 -20 -20 -20 -20 -20 -20 -20 -19 -19 -20 -19 -21 -21 -22 -22 -22 -23 -23 -23 -24 -24 -24 -25 -24 -25 -24 -24 -23 -23 -23 -23 -23 -23 -23 -23 -22 -22 -22 -22 -22 -21 -21 -21
Height
1478 1479 1480 1482 1483 1485 1485 1486 1488 1490 1491 1491 1493 1495 1495 1495 1493 1494 1493 1491 1492 1488 1484 1483 1483 1483 1484 1487 1491 1489 1492 1492 1494 1501 1507 1501 1505 1499 1501 1500 1496 1488 1498 1496 1500 1495 1479 1460 1469 1463 1456 1455 1457 1458
1468 1470 1471 1472 1473 1475 1476 1477 1478 1481 1483 1484 1485 1487 1489 1490 1489 1489 1489 1489 1487 1486 1483 1481 1479 1479 1479 1480 1482 1484 1486 1485 1485 1494 1500 1499 1496 1503 1505 1488 1494 1493 1479 1479 1475 1463 1454 1455 1452 1452 1455 1454 1455 1458
1456 1458 1459 1461 1462 1464 1465 1465 1467 1470 1472 1475 1477 1479 1481 1483 1484 1485 1484 1484 1484 1482 1479 1476 1474 1475 1474 1476 1477 1480 1481 1480 1481 1482 1486 1493 1496 1490 1494 1491 1489 1478 1477 1481 1470 1452 1450 1450 1450 1450 1450 1453 1455 1457
1445 1446 1448 1449 1450 1452 1454 1455 1457 1459 1461 1465 1468 1472 1474 1477 1478 1479 1480 1480 1481 1480 1477 1472 1470 1471 1470 1471 1473 1475 1476 1477 1478 1480 1481 1487 1490 1482 1485 1483 1482 1474 1476 1472 1467 1449 1447 1445 1445 1445 1448 1449 1452 1455
1434 1435 1436 1437 1439 1441 1443 1445 1447 1450 1452 1455 1460 1463 1466 1470 1472 1474 1474 1474 1475 1479 1472 1468 1465 1464 1464 1466 1468 1470 1473 1475 1475 1477 1477 1479 1476 1478 1482 1483 1474 1461 1454 1457 1448 1440 1441 1440 1441 1441 1443 1445 1448 1451
1423 1424 1425 1427 1428 1430 1432 1434 1436 1439 1443 1447 1450 1456 1459 1463 1465 1469 1470 1467 1466 1470 1472 1469 1463 1458 1459 1462 1464 1467 1471 1472 1473 1471 1470 1468 1467 1469 1475 1472 1436 1436 1437 1437 1436 1436 1436 1436 1437 1437 1438 1442 1446 1449
1408 1410 1413 1415 1417 1419 1422 1424 1427 1429 1433 1437 1441 1445 1452 1456 1459 1464 1464 1463 1464 1468 1469 1466 1460 1457 1457 1460 1462 1465 1467 1470 1472 1469 1466 1464 1465 1466 1467 1453 1424 1426 1427 1429 1431 1433 1434 1433 1434 1435 1437 1441 1445 1446
1396 1397 1399 1401 1404 1407 1410 1413 1415 1420 1423 1426 1430 1436 1443 1447 1452 1456 1458 1460 1462 1467 1469 1466 1457 1460 1456 1458 1461 1463 1464 1468 1468 1465 1462 1460 1463 1462 1454 1418 1417 1420 1422 1422 1423 1425 1427 1429 1431 1432 1434 1437 1440 1443
1385 1387 1387 1388 1391 1392 1397 1401 1405 1409 1413 1418 1422 1428 1437 1434 1439 1446 1450 1454 1457 1465 1459 1456 1453 1449 1454 1456 1458 1462 1463 1465 1463 1461 1457 1457 1454 1444 1411 1405 1409 1411 1413 1415 1417 1418 1421 1424 1427 1429 1431 1433 1436 1439
1375 1376 1377 1378 1380 1382 1384 1388 1395 1399 1403 1409 1410 1418 1420 1424 1429 1442 1448 1451 1450 1449 1447 1442 1440 1445 1447 1453 1456 1459 1460 1461 1462 1451 1451 1448 1432 1404 1404 1405 1407 1407 1408 1410 1412 1415 1416 1417 1420 1423 1425 1429 1432 1435
1362 1364 1366 1369 1372 1374 1376 1378 1383 1392 1395 1383 1394 1404 1412 1420 1429 1436 1439 1440 1439 1438 1428 1423 1425 1432 1441 1447 1450 1453 1456 1456 1463 1447 1448 1439 1421 1397 1396 1397 1400 1400 1401 1403 1405 1406 1409 1412 1415 1418 1420 1423 1426 1429
1348 1351 1355 1358 1361 1365 1368 1371 1375 1382 1376 1376 1376 1392 1409 1414 1421 1427 1428 1429 1428 1417 1412 1414 1420 1425 1434 1438 1441 1448 1449 1451 1454 1444 1448 1435 1401 1394 1396 1397 1397 1398 1398 1399 1399 1399 1401 1404 1407 1410 1412 1414 1418 1422
1334 1337 1341 1346 1351 1355 1360 1364 1368 1372 1368 1374 1376 1378 1389 1402 1404 1403 1408 1411 1409 1395 1398 1404 1415 1422 1430 1432 1437 1442 1448 1447 1441 1444 1433 1410 1397 1397 1396 1396 1396 1396 1397 1398 1399 1398 1398 1399 1401 1404 1406 1409 1411 1414
1318 1322 1328 1334 1340 1345 1350 1356 1363 1361 1369 1365 1366 1374 1363 1381 1375 1365 1363 1366 1372 1375 1384 1394 1408 1417 1422 1429 1432 1437 1437 1439 1443 1444 1417 1393 1393 1395 1396 1397 1397 1397 1397 1398 1398 1398 1399 1400 1402 1403 1404 1405 1406 1408
1301 1307 1314 1321 1329 1335 1341 1347 1352 1355 1359 1358 1355 1353 1350 1345 1348 1349 1355 1360 1368 1375 1381 1395 1405 1411 1417 1423 1426 1432 1439 1441 1429 1409 1395 1393 1395 1395 1396 1396 1397 1397 1397 1398 1398 1398 1398 1398 1399 1401 1402 1402 1403 1404
1284 1293 1298 1309 1318 1326 1333 1340 1345 1347 1349 1349 1343 1341 1340 1344 1346 1349 1355 1360 1365 1373 1383 1391 1400 1406 1410 1410 1418 1420 1422 1414 1393 1393 1393 1394 1395 1396 1397 1397 1397 1397 1396 1397 1398 1397 1398 1397 1396 1396 1397 1398 1399 1400
1269 1275 1287 1298 1310 1319 1326 1331 1334 1336 1338 1336 1334 1334 1339 1339 1339 1344 1347 1356 1364 1370 1376 1384 1390 1393 1400 1403 1408 1403 1398 1389 1389 1391 1394 1395 1395 1396 1397 1396 1396 1395 1394 1394 1394 1394 1395 1394 1393 1392 1392 1394 1395 1396
1254 1264 1278 1291 1303 1312 1318 1324 1326 1326 1325 1328 1331 1332 1335 1338 1338 1341 1345 1353 1361 1366 1371 1373 1378 1385 1389 1396 1390 1385 1387 1390 1390 1392 1393 1395 1395 1395 1395 1395 1393 1392 1391 1390 1390 1390 1390 1389 1388 1388 1388 1389 1389 1390
1249 1264 1276 1287 1296 1305 1312 1317 1318 1318 1323 1326 1327 1331 1334 1336 1340 1338 1340 1351 1356 1361 1364 1369 1371 1373 1377 1382 1383 1386 1388 1390 1391 1393 1394 1394 1394 1394 1393 1392 1391 1389 1388 1387 1386 1386 1386 1385 1385 1384 1383 1383 1383 1385
1258 1269 1278 1287 1295 1302 1307 1311 1312 1315 1322 1327 1329 1332 1335 1338 1342 1342 1345 1353 1357 1361 1364 1368 1375 1378 1380 1382 1383 1386 1388 1389 1390 1392 1393 1393 1393 1393 1391 1391 1389 1387 1386 1385 1384 1384 1383 1382 1382 1380 1379 1379 1379 1381
1267 1276 1282 1288 1296 1301 1306 1310 1314 1319 1322 1326 1331 1334 1339 1341 1342 1346 1350 1353 1357 1368 1374 1377 1379 1380 1382 1383 1384 1386 1387 1389 1389 1391 1392 1392 1391 1391 1391 1390 1388 1386 1385 1383 1382 1382 1380 1379 1377 1377 1376 1376 1377 1378
1272 1280 1284 1293 1298 1306 1312 1315 1317 1321 1325 1330 1333 1337 1342 1347 1350 1353 1355 1359 1372 1377 1377 1378 1380 1382 1383 1384 1385 1386 1388 1389 1389 1390 1390 1390 1390 1390 1389 1387 1386 1385 1384 1383 1381 1380 1378 1377 1376 1375 1374 1374 1374 1374
1282 1287 1292 1297 1303 1310 1321 1319 1320 1324 1328 1334 1336 1342 1350 1353 1356 1357 1365 1373 1378 1379 1380 1381 1382 1383 1384 1385 1386 1387 1388 1388 1389 1389 1389 1389 1389 1388 1387 1386 1385 1384 1383 1382 1380 1378 1376 1375 1374 1373 1373 1372 1372 1372
1287 1293 1302 1307 1311 1319 1321 1323 1326 1328 1332 1337 1342 1351 1356 1357 1359 1363 1372 1378 1382 1382 1383 1383 1384 1384 1386 1387 1387 1388 1388 1389 1389 1389 1389 1388 1388 1387 1386 1385 1384 1382 1381 1379 1377 1376 1375 1374 1373 1372 1371 1371 1371 1370
1296 1318 1319 1321 1322 1322 1325 1329 1332 1335 1342 1345 1350 1355 1359 1359 1363 1371 1378 1384 1384 1384 1385 1385 1386 1387 1387 1388 1389 1389 1389 1389 1389 1389 1388 1387 1386 1386 1385 1383 1381 1380 1378 1377 1375 1374 1374 1373 1372 1371 1369 1369 1368 1368
1320 1333 1333 1334 1333 1331 1333 1335 1339 1341 1345 1351 1357 1359 1359 1360 1367 1378 1382 1384 1385 1386 1386 1387 1387 1388 1389 1390 1390 1390 1390 1390 1389 1388 1387 1386 1384 1382 1380 1379 1378 1377 1375 1374 1373 1372 1371 1370 1369 1367 1366 1365 1365 1365
1338 1343 1342 1343 1342 1340 1342 1344 1346 1348 1352 1357 1360 1360 1360 1366 1376 1384 1385 1385 1386 1387 1388 1389 1390 1390 1391 1391 1392 1391 1389 1388 1386 1385 1383 1381 1379 1378 1376 1375 1374 1374 1372 1371 1370 1368 1366 1365 1364 1363 1362 1362 1362 1361
1349 1350 1350 1351 1349 1350 1351 1355 1359 1364 1365 1367 1365 1368 1368 1373 1381 1385 1385 1387 1388 1389 1390 1391 1392 1393 1392 1392 1390 1388 1386 1384 1382 1380 1377 1375 1373 1372 1370 1369 1369 1368 1367 1366 1365 1364 1362 1361 1360 1359 1358 1358 1357 1357
1357 1356 1355 1357 1358 1362 1369 1371 1373 1374 1374 1371 1370 1373 1379 1381 1383 1385 1388 1389 1391 1392 1393 1394 1393 1393 1392 1390 1389 1387 1384 1381 1378 1375 1373 1371 1369 1368 1366 1365 1364 1363 1362 1360 1360 1359 1358 1358 1357 1356 1354 1353 1353 1353
1363 1361 1362 1366 1370 1377 1379 1377 1377 1376 1374 1373 1375 1378 1381 1385 1387 1389 1391 1392 1393 1394 1394 1394 1393 1392 1390 1389 1387 1385 1383 1379 1376 1374 1370 1367 1365 1363 1361 1359 1357 1356 1355 1354 1353 1353 1353 1351 1350 1349 1348 1347 1348 1348
1366 1365 1367 1373 1379 1382 1381 1380 1379 1378 1378 1379 1379 1381 1384 1388 1390 1392 1393 1394 1394 1395 1395 1394 1393 1391 1389 1386 1383 1378 1375 1374 1371 1368 1365 1361 1358 1356 1354 1353 1351 1350 1349 1348 1346 1346 1345 1344 1344 1343 1343 1342 1342 1343
1371 1373 1375 1381 1383 1383 1382 1381 1381 1381 1382 1382 1384 1385 1388 1389 1392 1394 1395 1394 1395 1396 1396 1394 1391 1388 1385 1382 1379 1375 1370 1366 1363 1360 1357 1354 1351 1349 1347 1345 1344 1342 1341 1340 1339 1338 1338 1337 1336 1336 1336 1336 1337 1337
1378 1379 1380 1382 1383 1383 1384 1383 1383 1385 1386 1387 1388 1389 1390 1392 1394 1396 1397 1397 1398 1396 1393 1388 1385 1382 1379 1375 1371 1367 1363 1359 1356 1352 1351 1347 1345 1342 1340 1336 1333 1332 1331 1331 1330 1329 1329 1329 1329 1329 1328 1329 1329 1330
Wind_Speed
31 31 33 34 35 33 32 32 29 26 24 23 20 18 16 13 11 11 10 9 9 5 7 7 7 6 6 4 3 4 2 1 3 2 3 3 3 4 1 4 5 6 6 4 3 2 8 12 5 6 3 3 7 10
39 38 36 34 32 33 33 33 32 30 27 25 24 21 18 18 14 13 12 11 11 5 6 10 11 12 12 10 5 7 2 4 5 3 1 2 3 2 2 3 1 3 5 4 8 6 2 24 4 9 5 5 10 13
33 32 32 34 36 36 32 28 30 33 30 29 27 24 21 19 18 15 15 13 11 6 9 7 8 11 15 16 15 7 5 6 6 6 6 1 3 3 4 5 1 4 4 2 4 2 9 18 23 11 10 7 10 12
37 35 32 30 28 29 34 35 34 31 31 33 30 26 23 20 20 17 15 14 10 5 3 5 8 9 11 14 16 17 14 8 6 8 4 3 2 5 2 1 2 2 6 4 7 10 13 23 25 22 18 14 14 14
39 38 37 35 35 32 30 29 33 35 32 30 31 28 25 22 20 19 17 17 15 10 4 4 12 18 14 12 13 14 14 12 8 6 2 3 5 3 1 0 4 12 7 6 6 4 2 2 3 14 25 24 19 18
40 39 39 37 35 34 32 33 33 27 31 33 29 30 24 21 21 15 7 12 14 11 4 2 6 8 7 10 11 11 12 12 6 5 5 5 5 6 3 4 10 21 21 21 4 1 8 9 8 8 18 23 20 17
39 43 44 41 38 37 34 32 31 29 30 29 33 27 27 24 22 17 6 1 10 6 2 5 4 2 7 8 9 10 12 6 7 4 5 4 6 8 2 5 6 10 14 22 23 17 13 15 8 6 12 19 20 19
32 34 34 38 44 42 37 35 32 30 30 29 35 28 28 27 24 22 18 13 13 5 3 2 2 4 10 5 5 8 6 8 7 5 3 4 6 3 5 15 21 16 11 10 13 22 20 12 7 9 10 19 24 22
32 31 30 31 32 35 43 39 36 30 27 28 39 27 27 33 26 20 23 18 16 12 5 6 4 3 12 5 5 6 6 2 4 3 4 7 3 6 11 16 18 17 11 7 8 15 19 21 16 12 14 19 23 23
35 33 31 30 29 28 29 40 38 30 31 32 41 23 11 15 23 20 9 7 12 13 11 5 8 3 12 7 3 5 4 2 2 5 7 4 5 28 24 20 14 12 10 11 10 10 12 17 19 19 18 19 20 19
37 35 34 32 29 27 26 26 35 35 29 44 17 10 20 30 17 10 8 7 8 3 11 10 21 7 11 4 3 9 3 2 0 3 3 3 4 4 10 16 19 16 20 20 20 24 17 10 9 13 18 19 21 21
39 37 35 33 30 27 26 25 24 35 19 37 29 33 28 10 7 6 5 3 5 6 11 9 8 8 9 7 4 6 4 2 5 5 1 3 5 6 6 6 8 10 10 11 11 13 17 20 18 15 14 18 22 21
43 39 37 33 31 28 27 22 18 24 28 28 11 13 13 8 6 10 10 5 4 10 16 13 4 9 7 6 5 3 4 5 7 2 4 5 1 3 2 1 1 3 4 6 7 10 14 17 17 15 14 14 19 22
41 40 39 35 31 28 26 21 17 29 23 11 10 6 6 6 7 7 6 6 8 13 29 26 10 6 5 4 3 4 2 2 2 3 7 3 7 6 5 7 7 7 6 4 2 1 2 5 8 11 14 15 19 21
44 43 39 35 31 28 26 20 21 36 23 8 8 7 8 6 4 10 16 18 11 31 36 13 7 5 2 3 3 4 2 4 5 5 2 7 8 8 6 6 6 6 7 7 7 6 4 5 8 11 13 14 16 18
45 42 42 35 32 28 26 19 26 40 15 8 7 3 1 6 2 10 15 13 25 34 21 6 4 4 4 4 4 7 6 7 4 2 8 9 6 4 3 3 3 5 6 8 9 10 10 10 10 12 15 17 17 18
45 44 40 32 29 26 22 25 23 15 9 5 4 9 11 0 8 9 19 20 36 26 3 3 6 6 3 3 4 5 5 2 8 13 10 5 2 2 3 5 7 8 9 12 13 15 16 16 17 18 18 18 18 18
42 39 35 28 28 27 26 25 11 10 5 5 3 7 13 6 22 18 16 35 23 12 12 4 8 4 5 7 4 2 4 7 12 10 5 1 3 5 7 9 11 12 12 13 15 16 16 17 18 17 16 16 18 20
36 30 25 26 31 23 9 12 8 4 3 4 7 14 8 10 8 23 27 37 15 17 15 9 4 4 3 2 3 6 8 5 4 2 2 2 4 8 9 10 11 11 12 13 13 14 15 15 16 15 15 15 17 17
23 21 22 28 33 7 5 4 5 6 3 3 7 8 11 9 13 21 28 23 17 10 3 1 2 2 4 7 7 8 6 3 1 0 1 2 5 7 9 11 11 11 12 11 12 14 15 14 12 12 12 12 15 16
29 27 32 33 11 6 6 4 5 5 7 7 10 5 6 9 9 7 8 11 6 5 2 4 8 10 9 9 8 6 4 2 2 1 2 5 7 8 8 8 9 10 11 11 12 11 11 13 13 12 12 11 12 14
26 27 29 16 6 5 6 6 7 5 5 6 5 6 6 3 4 5 5 10 6 5 3 7 10 10 9 8 7 5 5 4 3 3 3 5 7 7 7 9 9 9 10 10 11 11 10 10 10 9 9 9 9 12
23 18 7 7 5 5 3 4 4 4 3 2 4 3 3 3 3 4 6 5 4 6 7 9 9 9 9 8 6 5 4 4 4 4 3 4 5 6 7 8 9 10 8 7 9 10 10 9 8 9 8 8 8 7
15 8 8 6 8 3 3 4 4 4 4 3 3 3 3 2 3 5 3 4 5 6 8 9 10 9 7 6 6 6 5 5 5 5 4 4 5 6 7 8 8 9 10 10 10 10 10 9 9 8 7 7 6 7
9 10 7 6 9 4 4 3 3 3 3 3 3 3 2 2 2 3 2 3 4 5 7 8 8 7 7 6 5 5 5 5 5 6 6 6 7 7 7 8 9 9 10 9 9 10 9 9 9 8 7 7 7 7
8 10 6 6 6 4 4 3 4 3 3 3 3 1 2 2 3 3 2 5 5 5 6 7 7 7 7 6 5 5 6 8 8 8 8 10 11 13 13 12 10 9 12 12 13 13 12 11 10 10 8 8 7 9
6 5 6 9 5 4 4 7 7 5 5 3 2 1 1 4 3 2 5 5 6 7 7 8 8 8 8 8 8 11 13 15 16 17 17 17 16 16 16 15 14 11 13 13 11 13 14 13 12 11 11 10 9 10
6 10 6 11 8 12 3 4 5 5 3 7 2 4 3 3 2 4 4 7 8 9 9 9 8 7 9 14 15 15 15 16 17 17 16 14 13 14 14 14 14 14 15 13 13 13 13 13 12 10 10 9 9 10
7 12 5 6 6 8 8 5 3 4 7 4 2 2 2 4 6 9 11 10 10 10 8 7 8 10 12 13 15 17 20 20 20 20 19 18 15 13 13 13 12 15 17 17 13 13 13 13 14 14 15 15 12 10
8 11 4 5 5 5 6 6 4 7 9 8 6 7 8 9 11 11 9 9 8 6 3 3 7 8 11 15 19 22 23 22 19 19 21 22 22 19 18 17 18 18 17 17 16 15 14 14 13 13 14 15 14 12
7 5 6 7 4 4 6 5 7 9 8 9 11 10 8 7 6 5 4 2 1 2 4 7 10 14 16 20 25 32 34 27 24 23 26 28 26 22 19 14 13 13 13 15 17 18 17 16 14 13 12 12 11 14
10 9 4 3 1 4 5 4 4 4 5 5 6 6 4 4 4 4 7 4 1 4 9 16 19 20 22 27 30 28 27 30 29 28 29 26 24 26 26 25 22 21 19 20 20 20 19 18 18 18 19 17 14 13
5 7 7 3 3 3 7 5 6 3 5 3 5 5 4 3 4 5 8 9 9 16 27 25 21 25 27 28 30 29 24 23 24 24 24 24 25 25 26 28 28 27 25 24 23 19 17 18 18 17 18 19 18 16
Wind_Direction
274 275 274 271 268 267 265 264 263 261 262 265 270 278 286 289 292 301 320 344 355 297 269 238 230 197 175 190 154 179 78 288 60 90 151 218 174 222 114 205 190 171 149 192 138 167 274 155 119 180 178 135 183 182
276 274 274 273 273 271 267 261 262 259 256 257 259 264 271 280 282 285 291 308 328 304 274 277 255 239 236 224 197 192 197 183 192 93 212 125 196 183 171 262 310 272 191 185 191 217 197 189 207 190 180 169 185 190
267 270 272 274 273 269 266 265 260 257 253 252 252 254 259 267 275 277 281 291 315 302 289 263 249 238 236 234 227 203 213 197 188 184 155 185 225 142 184 237 249 250 180 219 22 285 225 214 227 212 206 213 191 186
267 264 262 263 265 270 272 269 265 258 252 251 246 245 249 255 264 271 276 280 285 272 253 248 237 246 252 238 232 228 237 214 186 175 159 151 192 185 229 216 214 191 143 189 262 277 265 259 238 237 223 210 196 190
272 270 266 260 259 258 259 265 264 259 259 252 247 239 240 246 252 262 268 270 268 245 246 260 274 274 255 242 231 228 228 216 184 168 154 211 182 150 98 104 240 188 192 180 232 232 200 268 301 241 224 215 205 200
263 264 266 267 264 260 259 259 257 258 263 253 246 239 232 228 236 247 269 257 248 222 272 319 263 248 227 211 207 206 202 201 203 204 203 219 192 174 156 218 247 216 225 227 241 257 242 266 292 296 222 214 211 210
265 260 258 258 259 261 256 252 251 255 257 257 243 231 227 223 227 212 215 233 157 156 267 310 265 204 180 179 189 197 202 210 216 226 227 191 191 203 179 234 228 229 237 236 240 250 272 266 253 285 232 211 216 213
269 265 264 259 251 252 255 256 250 247 255 247 238 224 216 213 219 225 225 224 222 253 253 229 247 225 184 165 178 182 184 201 229 248 206 188 165 196 247 239 239 237 240 241 244 236 239 256 280 262 220 204 213 214
271 271 268 262 258 254 244 245 251 247 241 247 228 207 191 197 194 203 222 232 231 206 228 190 191 226 168 145 148 161 181 180 226 236 240 170 181 227 225 223 220 225 215 206 226 227 236 242 245 251 228 216 219 221
269 267 266 266 266 261 254 240 239 238 247 236 183 172 183 180 183 186 172 198 206 205 222 218 205 186 164 158 144 133 180 225 214 231 167 219 250 255 251 241 237 204 228 236 224 226 238 243 241 238 238 234 234 232
266 265 264 263 262 263 261 252 233 232 231 170 164 152 148 144 140 161 186 186 178 249 210 213 200 149 179 137 166 198 190 194 287 242 187 241 263 244 225 226 240 243 239 246 254 245 240 232 241 242 240 240 235 232
264 262 260 258 257 257 257 260 247 224 250 187 171 142 141 161 160 165 190 154 197 220 180 154 166 148 148 161 127 186 175 101 242 142 163 260 252 189 181 209 224 231 234 234 234 230 224 230 229 235 235 232 235 236
259 256 255 253 252 249 251 253 247 235 224 168 156 152 153 176 181 187 183 216 212 176 169 152 127 150 143 166 110 135 141 213 125 178 234 237 187 139 99 31 156 181 201 229 249 235 219 215 218 232 236 241 232 230
255 252 249 246 245 242 237 245 229 207 192 199 160 174 178 182 219 196 186 150 185 157 144 137 120 143 141 135 146 147 184 104 219 245 232 235 168 146 107 85 90 75 68 59 32 355 236 234 248 252 250 251 235 231
250 247 244 240 235 233 226 229 214 203 201 211 191 206 201 186 170 183 157 133 125 146 140 115 96 131 128 140 175 99 100 248 213 233 242 129 132 131 115 95 74 59 46 34 23 6 332 283 264 257 252 247 242 237
254 247 238 230 224 225 215 210 207 200 204 222 221 186 305 162 125 144 146 128 144 145 134 119 132 138 185 159 147 209 162 221 239 211 145 141 130 116 91 54 22 3 353 344 335 327 315 303 288 266 253 247 246 242
247 225 229 217 212 213 198 202 195 195 208 214 216 211 180 126 142 143 157 154 154 150 131 146 159 186 107 164 215 187 210 213 149 136 138 124 94 2 344 337 328 325 324 321 319 315 308 302 294 285 274 264 254 250
210 206 213 199 193 185 194 198 191 194 193 176 160 171 180 153 156 150 154 162 157 176 152 162 125 179 190 178 216 179 122 139 147 140 126 18 333 322 321 320 321 321 320 316 309 304 301 298 294 291 282 266 254 248
188 185 188 179 179 171 164 181 190 143 92 126 130 154 146 136 171 181 160 166 170 160 141 158 169 187 183 94 90 108 128 135 146 159 322 320 327 326 324 323 323 322 322 316 311 308 303 299 298 294 285 266 259 255
165 165 160 174 175 155 132 104 131 103 103 109 126 110 117 113 135 145 141 156 143 146 95 66 48 65 90 108 117 133 132 129 135 30 239 322 334 335 332 330 331 328 325 319 313 307 307 299 294 294 290 282 269 260
137 140 151 161 131 87 89 66 74 82 112 88 112 79 70 84 96 101 95 122 77 45 83 75 110 109 118 120 123 123 109 79 63 38 333 339 344 340 332 330 331 331 330 327 321 317 306 304 303 296 285 283 279 270
124 151 133 144 82 79 77 53 98 96 84 108 85 76 71 55 47 50 80 58 57 44 81 129 129 132 124 114 106 94 74 60 44 20 346 323 323 322 325 329 335 343 343 336 331 329 328 323 315 315 310 290 277 272
133 129 82 53 89 66 59 50 73 41 93 84 81 74 47 59 60 73 74 66 80 67 107 122 128 127 114 100 89 72 55 34 17 359 335 327 334 331 330 326 329 334 338 335 335 337 335 330 322 310 302 294 290 276
111 60 37 42 45 73 78 44 53 68 71 54 53 77 43 57 70 62 74 64 87 99 101 111 124 122 106 82 65 56 43 28 12 356 348 339 327 319 322 325 329 329 330 335 336 331 325 322 316 309 296 295 286 279
74 16 24 15 25 39 54 50 41 58 74 59 90 80 60 46 73 64 72 108 128 108 104 103 106 107 97 79 60 41 27 12 2 352 337 332 327 320 313 312 313 312 312 311 313 317 321 316 309 302 293 280 276 273
69 21 36 1 9 27 13 66 37 59 82 70 56 78 63 76 70 67 74 139 131 116 106 100 98 96 82 68 52 24 2 351 343 336 327 321 318 316 314 309 305 302 300 305 308 306 305 305 307 305 298 287 271 271
50 357 23 25 352 355 77 60 50 52 58 52 34 45 59 70 72 76 127 123 120 116 110 102 95 86 73 53 24 353 334 324 316 311 306 302 299 298 296 294 290 286 287 297 300 303 305 305 302 297 294 285 280 270
50 29 31 354 39 31 51 47 35 33 26 349 304 37 62 40 89 137 134 133 124 119 109 100 84 51 20 353 350 351 344 336 330 325 321 315 303 292 285 281 279 278 285 295 299 303 305 305 307 307 296 295 291 277
38 356 18 31 43 45 37 25 46 31 349 344 25 64 76 67 114 124 128 126 124 120 108 78 39 14 13 15 11 4 353 345 342 341 336 332 328 315 294 276 275 283 286 285 281 284 292 306 311 307 294 279 275 278
9 12 78 50 50 41 23 34 47 44 46 59 86 95 88 99 117 120 121 124 124 123 93 29 359 350 345 345 347 348 349 342 338 337 333 328 324 319 308 296 286 280 276 275 275 281 275 281 287 287 279 278 265 259
3 30 68 52 77 39 28 51 58 57 58 60 75 91 102 112 116 110 98 113 166 285 303 306 324 322 323 328 332 330 330 331 325 323 319 318 319 316 315 307 302 297 288 281 278 277 281 275 274 281 288 287 273 254
29 38 72 73 61 29 22 36 41 51 44 49 48 59 80 89 80 66 20 28 18 332 332 325 317 318 317 318 322 324 321 318 316 312 307 310 311 311 307 302 298 294 288 286 285 282 278 275 270 268 269 273 274 263
43 39 54 73 52 31 13 17 41 61 53 60 46 44 51 73 93 57 62 63 43 347 321 321 307 311 316 318 318 320 322 321 321 319 311 303 298 301 300 296 293 289 286 285 285 275 267 273 273 277 276 267 263 259